This is the latest recevied weather packets stored in our database for station/object VK5FR. If no packets are shown the sender has not sent any weather packets the latest 10 day(s).
| Time | Temp. | Humidity | Pressure | Rain* | Wind** | Luminosity | Snow |
|---|---|---|---|---|---|---|---|
| 1777615438 | 25° C | 54% | 1012.2 hPa | 0 mm | - | - | - |
| 1777615137 | 25° C | 52% | 1012.3 hPa | 0 mm | - | - | - |
| 1777614832 | 25° C | 53% | 1012.3 hPa | 0 mm | - | - | - |
| 1777614530 | 24.44° C | 53% | 1012.3 hPa | 0 mm | - | - | - |
| 1777614225 | 24.44° C | 53% | 1012.2 hPa | 0 mm | - | - | - |
| 1777613920 | 24.44° C | 52% | 1012.4 hPa | 0 mm | - | - | - |
| 1777613617 | 24.44° C | 53% | 1012.5 hPa | 0 mm | - | - | - |
| 1777613314 | 24.44° C | 54% | 1012.7 hPa | 0 mm | - | - | - |
| 1777613011 | 24.44° C | 53% | 1012.4 hPa | 0 mm | - | - | - |
| 1777612707 | 25° C | 52% | 1012.5 hPa | 0 mm | - | - | - |
| 1777612403 | 24.44° C | 52% | 1012.5 hPa | 0 mm | - | - | - |
| 1777612098 | 24.44° C | 53% | 1012.4 hPa | 0 mm | - | - | - |
| 1777611793 | 24.44° C | 52% | 1012.4 hPa | 0 mm | - | - | - |
| 1777611490 | 24.44° C | 53% | 1012.6 hPa | 0 mm | - | - | - |
| 1777611188 | 24.44° C | 52% | 1012.6 hPa | 0 mm | - | - | - |
| 1777610883 | 24.44° C | 53% | 1012.8 hPa | 0 mm | - | - | - |
| 1777610578 | 24.44° C | 54% | 1012.9 hPa | 0 mm | - | - | - |
| 1777610278 | 24.44° C | 54% | 1013 hPa | 0 mm | - | - | - |
| 1777609975 | 24.44° C | 52% | 1012.9 hPa | 0 mm | - | - | - |
| 1777609671 | 24.44° C | 54% | 1012.9 hPa | 0 mm | - | - | - |
| 1777609369 | 23.89° C | 56% | 1013 hPa | 0 mm | - | - | - |
| 1777609066 | 23.33° C | 59% | 1012.8 hPa | 0 mm | - | - | - |
| 1777608764 | 23.33° C | 60% | 1013 hPa | 0 mm | - | - | - |
| 1777608459 | 23.89° C | 59% | 1013 hPa | 0 mm | - | - | - |
| 1777608158 | 23.89° C | 58% | 1013.1 hPa | 0 mm | - | - | - |
* Rain latest hour (hover to see other rain measurements)
** Current wind speed in m/s (hover to see current wind gust speed)